Location: Enikep?du
(16.5133°N, 80.7066°E)
Time: 11:37:45
(UTC+00:00)

USA 238 DEB - Pass Details

Date: 15 May 2026
Orbit: 883 x 1328 km, 63.4° (Epoch: 10 January)

Event Time Altitude Azimuth Distance (km) Brightness Sun altitude
Exits shadow 22:48:14 17° 198° (SSW) 2,055 4.8 -18.0°
Maximum altitude 22:52:45 77° 114° (ESE) 918 3.4 -17.0°
Drops below altitude 10° 22:58:48 10° 29° (NNE) 2,637 6.6 -15.7°
Sets 23:01:25 0° 28° (NNE) 3,631 7.4 -15.2°
